Theta_e
345 347 348 350 349 350 350 344 343 341 339 332 333 334 327 328 325 321 316 317 326 326 322 320 322 325 329 330 327 324 326 328 329
342 345 346 348 349 349 350 346 341 338 339 336 333 331 330 330 332 323 318 318 317 317 323 327 325 324 324 328 328 325 322 325 328
339 344 345 347 348 348 348 347 339 339 341 340 337 331 332 330 339 326 320 321 320 322 327 328 322 324 328 324 325 326 325 321 324
339 343 344 345 346 346 346 347 344 337 343 345 343 337 338 337 341 326 325 320 319 319 319 318 321 323 325 325 322 319 321 326 328
338 340 343 344 345 346 347 347 345 340 341 344 345 345 340 342 342 326 329 323 321 319 319 320 321 322 322 322 323 324 325 324 326
338 339 341 342 344 345 345 346 345 343 342 342 345 347 345 346 344 328 330 326 323 322 319 319 319 319 319 320 321 323 325 328 329
339 339 339 339 342 343 343 344 345 345 344 344 345 347 347 346 347 332 329 329 324 321 320 319 319 321 322 322 323 325 327 329 329
338 340 340 339 339 340 341 342 344 345 345 345 345 346 348 347 347 336 327 330 323 321 320 319 320 323 324 326 327 326 324 325 327
337 336 337 338 338 339 340 340 341 342 343 344 346 347 347 349 347 336 329 330 326 323 321 320 320 324 326 328 327 325 323 324 327
335 337 338 338 338 338 338 339 340 341 342 345 345 347 350 349 340 338 331 330 331 323 320 321 321 325 328 327 326 327 327 328 328
336 337 338 339 339 339 338 341 342 342 343 345 345 348 350 350 345 338 332 332 332 325 320 321 324 324 329 331 331 331 329 328 326
337 336 334 333 331 328 327 330 335 343 347 347 347 349 350 347 343 342 333 333 330 320 320 321 328 327 330 330 328 329 326 327 326
334 333 332 330 330 330 330 329 332 339 346 350 350 349 349 348 344 340 332 332 331 325 325 323 332 332 333 332 330 328 325 327 328
333 336 335 333 332 331 330 331 331 332 344 348 350 350 349 344 341 338 336 337 337 336 334 332 335 333 330 330 330 325 325 326 324
331 330 331 332 336 337 334 334 333 332 342 348 350 350 348 345 340 339 338 336 335 334 328 327 334 330 330 330 325 322 324 325 324
328 326 327 328 326 326 331 339 334 335 345 349 348 346 345 341 339 335 334 332 328 327 329 326 331 330 328 324 322 323 326 325 324
332 330 329 327 327 329 332 339 344 347 348 346 344 342 341 340 339 336 332 331 326 325 328 331 331 328 328 324 324 325 325 323 321
331 330 330 332 336 342 344 346 345 344 343 342 340 339 334 327 324 324 328 329 326 325 331 329 328 328 327 324 325 324 322 320 320
340 340 340 338 341 343 345 343 342 340 338 336 331 325 322 325 325 327 328 324 327 331 332 330 328 326 325 324 323 322 322 321 320
335 340 342 341 337 341 343 341 338 336 333 332 326 328 330 328 327 323 321 326 329 327 328 327 326 325 325 324 323 322 320 318 317
Wind_Speed
38 42 49 52 50 48 45 40 39 38 38 36 35 30 26 21 16 14 13 14 16 13 11 10 8 9 10 7 7 7 5 5 5
36 42 46 50 51 50 48 44 43 42 42 40 38 35 30 26 21 18 17 13 13 13 12 11 10 10 9 9 11 10 10 10 9
37 40 42 44 48 51 51 49 44 43 44 43 42 38 35 30 26 22 16 16 15 13 11 13 13 11 10 9 9 11 13 12 12
33 39 43 47 50 50 54 54 50 46 47 46 44 42 39 34 31 27 18 16 14 12 11 13 13 12 11 10 9 10 11 13 13
37 41 42 46 49 51 54 57 55 52 51 49 48 44 41 38 33 29 21 18 15 13 13 12 11 10 10 10 9 9 10 11 9
36 41 40 45 47 50 53 57 59 57 55 52 50 47 43 41 35 31 26 22 16 15 14 12 11 10 9 8 8 7 8 10 11
40 43 43 45 46 50 52 54 57 57 56 55 53 50 47 44 41 36 30 23 17 16 16 14 14 12 10 9 8 9 11 14 14
35 37 40 43 48 50 52 52 51 52 54 56 56 54 50 46 44 38 32 26 17 18 19 18 18 15 13 11 10 11 13 15 16
34 34 37 38 38 40 43 48 50 50 49 53 56 57 53 48 41 38 34 27 19 19 20 22 22 20 15 12 12 11 15 17 18
41 38 36 34 33 33 34 38 42 45 46 47 51 53 54 46 43 43 35 28 25 19 20 23 25 22 17 14 11 12 18 21 21
41 34 27 23 20 17 19 23 34 38 41 45 47 50 50 47 32 40 30 29 25 21 22 25 24 24 20 17 17 18 20 21 22
29 26 21 17 11 6 9 15 19 27 36 40 43 46 47 40 38 32 32 31 22 20 24 25 25 22 21 19 18 20 22 23 21
20 16 15 13 6 8 10 12 15 25 34 38 41 43 41 34 35 29 32 26 19 22 24 25 27 21 21 24 23 22 22 23 24
11 12 12 7 6 8 11 12 13 22 28 31 34 36 35 24 24 29 35 34 33 27 25 30 28 17 21 23 24 23 18 20 22
12 9 9 10 12 16 18 18 19 23 25 24 26 29 31 29 30 27 25 27 28 25 16 41 16 16 24 23 21 20 18 19 21
17 14 11 12 20 26 29 29 27 24 22 20 20 25 28 29 24 14 13 10 12 18 42 25 19 18 23 17 17 18 19 19 17
20 18 20 22 26 30 27 29 25 22 17 16 18 20 25 27 23 14 12 13 21 12 13 14 18 19 17 17 16 17 16 15 17
31 25 23 20 20 22 18 21 20 17 19 20 15 11 9 5 6 2 8 15 24 19 12 16 16 15 17 16 14 14 13 14 16
12 9 12 15 12 11 14 18 19 19 16 17 16 21 23 9 13 24 26 25 22 15 20 18 16 13 12 12 12 12 13 15 15
11 13 8 10 10 7 18 17 11 11 14 15 24 19 19 16 17 19 20 24 18 19 20 14 11 12 14 14 14 12 11 12 14
Wind_Direction
203 203 210 210 212 208 206 207 205 207 211 213 213 215 217 219 226 231 238 226 230 238 245 241 250 258 265 266 249 245 267 265 275
205 205 209 211 212 214 210 211 211 210 212 216 217 218 219 221 223 224 225 211 208 216 230 244 256 253 252 255 266 252 259 262 269
207 205 206 209 213 217 217 218 218 217 218 219 219 220 222 224 224 224 220 217 217 220 227 240 241 245 259 258 255 254 259 266 269
200 200 208 211 218 222 223 223 219 221 222 222 223 222 223 223 224 224 222 222 222 223 230 234 238 242 247 258 263 263 263 269 277
204 210 214 219 222 224 224 224 222 223 224 225 227 226 224 224 224 222 223 226 224 219 227 229 234 242 255 259 260 261 271 279 281
208 213 218 223 224 224 227 228 227 225 226 229 229 227 226 224 223 223 225 229 225 226 231 234 240 248 245 248 250 249 264 277 281
208 213 219 223 223 230 232 234 231 229 231 232 232 230 226 224 223 228 227 228 229 231 233 233 237 240 236 240 245 254 265 271 279
207 211 217 221 226 230 233 235 235 236 236 235 235 233 227 225 225 229 224 220 225 232 230 227 235 240 241 246 250 259 263 272 281
207 207 215 218 223 229 233 238 241 242 241 240 239 236 230 221 225 226 223 218 221 225 225 229 234 240 241 250 261 272 277 280 285
210 209 212 216 220 227 236 245 246 244 245 241 242 243 228 216 228 229 221 216 225 225 229 233 237 241 244 250 262 275 280 283 283
202 204 209 213 219 226 246 255 253 252 248 245 246 244 231 219 228 223 219 218 225 231 237 241 243 246 249 254 266 271 277 282 284
192 182 181 189 188 222 266 266 265 260 252 246 247 242 229 225 227 221 214 216 224 234 248 256 252 251 248 256 263 290 284 282 280
177 178 175 168 181 243 259 276 277 262 254 250 250 248 238 230 218 217 214 217 228 243 253 266 259 259 265 272 276 281 279 279 275
162 158 170 189 285 272 289 287 296 278 259 256 259 249 241 231 232 222 223 226 237 250 261 261 253 257 275 277 271 279 277 276 280
66 28 4 352 318 286 271 286 277 265 260 258 252 245 234 221 221 223 224 232 242 243 236 299 261 273 274 267 264 274 278 274 283
17 10 353 313 305 314 294 264 256 253 252 249 238 228 223 217 211 221 246 268 270 295 258 239 265 264 278 256 268 275 273 272 277
353 341 319 327 319 300 300 272 241 237 231 222 222 212 211 214 222 230 245 268 273 260 259 248 261 263 253 266 272 270 258 271 283
298 302 316 310 308 302 272 237 221 206 192 185 168 192 192 170 139 123 279 251 273 265 249 259 262 261 261 260 256 257 268 280 280
295 298 293 317 331 321 226 193 182 167 174 177 165 158 146 170 240 259 271 242 239 247 251 256 255 260 262 258 268 275 283 280 282
347 313 288 293 309 202 182 181 188 192 184 178 177 203 251 253 247 247 240 235 248 258 257 256 261 271 279 279 290 289 284 287 291